"Pseudo-MPEC" for P222nx3

Created 2024 Dec 4 0:31:40 UT using Find_Orb

Click here for an explanation of pseudo-MPECs

 
 Astrometry: 
     P222nx3* C2024 11 28.88452 03 30 09.32 -04 47 07.8    ~BT0V 21.0 RXNEOCP511
     P222nx3  C2024 11 28.88803 03 30 07.78 -04 46 42.6    ~BT0V 21.0 RXNEOCP511
     P222nx3  C2024 11 28.89153 03 30 07.02 -04 46 33.2    ~BT0V 21.0 RXNEOCP511
     P222nx3  C2024 11 28.89681 03 30 06.48 -04 46 24.2    ~BT0V 21.0 RXNEOCP511

Station data:
(511) Haute Provence  (N43.931873 E5.715700)  France.  Observers W.
   Polycarpe, M. Dennefield, W. Thuillot, B. Carry, P. David, S. Bouquillon,
   F. Taris, P. Tanga, M. Delbó, E. Saquet, V. Robert. Measurers W. Thuillot,
   S. Bouquillon, F. Taris, T. Carlucci, C. Barache. 1.20-m f/6 reflector +
   CCD.

Orbital elements:  P222nx3
   Perihelion 2025 Jun 19.90671 TT = 21:45:39 (JD 2460846.40671)
Epoch 2024 Nov 29.0 TT = JDT 2460643.5   Earth MOID: 0.3303      AutoNEOCP
M 235.05725408                      (J2000 ecliptic)
n   0.61576450     Peri.  115.87349
a   1.36833662     Node    71.70147
e   0.0367342      Incl.   35.66236
P   1.601/584.628d H   21.40    G   0.15   q 1.31807179  Q 1.41860145
From 4 observations 2024 Nov. 28 (17.7 min); mean residual 5".45
Residuals in arcseconds: 
241128 511  5.9+  6.7-    241128 511  5.1-  4.3+    
241128 511  5.4-  6.7+    241128 511  4.4+  4.5-    

Ephemerides (geocentric):
Date (UTC) HH   RA             Dec           delta  r     elong  mag
---- --------  ------------   ------------  ------ ------ -----  ---
2024 12 04 01  03 12 02.250   +00 09 39.08  .45607 1.3961 148.9 21.5
2024 12 04 02  03 11 53.820   +00 12 04.67  .45615 1.3961 148.9 21.5
2024 12 04 03  03 11 45.397   +00 14 30.26  .45623 1.3961 148.8 21.5
2024 12 04 04  03 11 36.980   +00 16 55.87  .45631 1.3961 148.8 21.5
2024 12 04 05  03 11 28.570   +00 19 21.48  .45639 1.3961 148.8 21.5
2024 12 04 06  03 11 20.167   +00 21 47.09  .45648 1.3961 148.7 21.5
2024 12 04 07  03 11 11.771   +00 24 12.72  .45656 1.3960 148.7 21.5
2024 12 04 08  03 11 03.381   +00 26 38.34  .45664 1.3960 148.7 21.5
2024 12 04 09  03 10 54.998   +00 29 03.98  .45672 1.3960 148.6 21.5
2024 12 04 10  03 10 46.622   +00 31 29.61  .45681 1.3960 148.6 21.5
2024 12 04 11  03 10 38.253   +00 33 55.25  .45689 1.3960 148.6 21.5
2024 12 04 12  03 10 29.890   +00 36 20.89  .45698 1.3959 148.6 21.5
2024 12 04 13  03 10 21.535   +00 38 46.54  .45706 1.3959 148.5 21.5
2024 12 04 14  03 10 13.186   +00 41 12.18  .45715 1.3959 148.5 21.5
2024 12 04 15  03 10 04.844   +00 43 37.83  .45724 1.3959 148.5 21.5
2024 12 04 16  03 09 56.509   +00 46 03.48  .45733 1.3959 148.4 21.5
2024 12 04 17  03 09 48.181   +00 48 29.13  .45741 1.3959 148.4 21.5
2024 12 04 18  03 09 39.860   +00 50 54.78  .45750 1.3958 148.4 21.5
2024 12 04 19  03 09 31.546   +00 53 20.43  .45759 1.3958 148.3 21.5
2024 12 04 20  03 09 23.240   +00 55 46.08  .45768 1.3958 148.3 21.5
2024 12 04 21  03 09 14.940   +00 58 11.72  .45777 1.3958 148.3 21.5
2024 12 04 22  03 09 06.647   +01 00 37.37  .45786 1.3958 148.2 21.5
2024 12 04 23  03 08 58.361   +01 03 03.01  .45796 1.3957 148.2 21.5
2024 12 05 00  03 08 50.083   +01 05 28.64  .45805 1.3957 148.2 21.5
2024 12 05 01  03 08 41.811   +01 07 54.28  .45814 1.3957 148.1 21.5
2024 12 05 02  03 08 33.547   +01 10 19.91  .45824 1.3957 148.1 21.5
2024 12 05 03  03 08 25.290   +01 12 45.53  .45833 1.3957 148.1 21.5
2024 12 05 04  03 08 17.040   +01 15 11.15  .45843 1.3956 148.0 21.5
2024 12 05 05  03 08 08.797   +01 17 36.77  .45852 1.3956 148.0 21.5
2024 12 05 06  03 08 00.562   +01 20 02.38  .45862 1.3956 148.0 21.5
2024 12 05 07  03 07 52.333   +01 22 27.98  .45871 1.3956 147.9 21.5
2024 12 05 08  03 07 44.112   +01 24 53.57  .45881 1.3956 147.9 21.5
2024 12 05 09  03 07 35.899   +01 27 19.16  .45891 1.3956 147.9 21.5
2024 12 05 10  03 07 27.693   +01 29 44.73  .45901 1.3955 147.8 21.5
2024 12 05 11  03 07 19.494   +01 32 10.30  .45911 1.3955 147.8 21.5
2024 12 05 12  03 07 11.302   +01 34 35.86  .45921 1.3955 147.8 21.5
2024 12 05 13  03 07 03.118   +01 37 01.41  .45931 1.3955 147.7 21.5
2024 12 05 14  03 06 54.941   +01 39 26.95  .45941 1.3955 147.7 21.5
2024 12 05 15  03 06 46.772   +01 41 52.48  .45951 1.3954 147.7 21.5
2024 12 05 16  03 06 38.610   +01 44 18.00  .45961 1.3954 147.6 21.5
2024 12 05 17  03 06 30.455   +01 46 43.50  .45971 1.3954 147.6 21.5
2024 12 05 18  03 06 22.308   +01 49 09.00  .45982 1.3954 147.6 21.5
2024 12 05 19  03 06 14.169   +01 51 34.48  .45992 1.3954 147.5 21.5
2024 12 05 20  03 06 06.037   +01 53 59.95  .46003 1.3954 147.5 21.5
2024 12 05 21  03 05 57.912   +01 56 25.40  .46013 1.3953 147.4 21.5
2024 12 05 22  03 05 49.796   +01 58 50.84  .46024 1.3953 147.4 21.5
2024 12 05 23  03 05 41.686   +02 01 16.27  .46034 1.3953 147.4 21.5
2024 12 06 00  03 05 33.585   +02 03 41.68  .46045 1.3953 147.3 21.5